Home   Weather   Lidzbark Warmiński   Past weeks

Flag for Poland Past Weather in Lidzbark Warmiński, Poland — Yesterday and Last 2 Weeks

Now
46 °F

Cool.


Feels Like: 43 °F
Forecast: 29 / 54 °F
Wind: 5 mph from North

Location: Ketrzyn

Current Time: Apr 30, 2017 at 1:10:38 pm

Latest Report: Apr 30, 2017 at 12:00 pm


Visibility: 28 mi

Pressure: 30.24 "Hg

Humidity: 57%

Dew Point: 31 °F

Location of Lidzbark WarmińskiLocation

Past Weather in Lidzbark Warmiński — Graph

°F

Lidzbark Warmiński Temperature Yesterday

Maximum temperature yesterday: 44 °F (at 12:00 pm)
Minimum temperature yesterday: 38 °F (at 5:00 am)
Average temperature yesterday: 41 °F

High & Low Weather Summary for the Past Weeks

 TemperatureHumidityPressure
High61 °F (Apr 25, 1:00 pm)97% (Apr 29, 7:00 am)30.50 "Hg (Apr 29, 7:00 am)
Low26 °F (Apr 19, 5:00 am)25% (Apr 23, 4:00 pm)29.50 "Hg (Apr 25, 2:00 pm)
Average40 °F71%29.97 "Hg
* Reported Apr 15 11:00 am — Apr 30 11:00 am, Lidzbark Warmiński, Weather by CustomWeather, © 2017

Note: Actual official high and low records may vary slightly from our data, if they occured in-between our weather recording intervals... More about our weather records

Advertising

Lidzbark Warmiński Weather History for the Previous 24 Hours

Scroll right to see more
 ConditionsComfort  
Time TempWeatherWind HumidityBarometerVisibility
11:00 am
Sun, Apr 30
45 °FCool.3 mph64%30.24 "Hg16 mi
10:00 am43 °FQuite cool.3 mph67%30.24 "Hg14 mi
9:00 am41 °FQuite cool.3 mph75%30.23 "Hg19 mi
8:00 am40 °FChilly.3 mph82%30.22 "Hg16 mi
7:00 am37 °FChilly.2 mph89%30.20 "Hg19 mi
6:00 am34 °FChilly.2 mph94%30.19 "Hg25 mi
5:00 am34 °FChilly.2 mph94%30.17 "Hg19 mi
4:00 am34 °FChilly.3 mph92%30.14 "Hg22 mi
3:00 am36 °FChilly.2 mph90%30.13 "Hg28 mi
2:00 am38 °FChilly.3 mph87%30.10 "Hg31 mi
1:00 am38 °FChilly.3 mph85%30.09 "Hg31 mi
12:00 am39 °FChilly.2 mph85%30.08 "Hg31 mi
11:00 pm
Sat, Apr 29
39 °FChilly.3 mph82%30.07 "Hg31 mi
10:00 pm40 °FChilly.3 mph77%30.05 "Hg31 mi
9:00 pm40 °FQuite cool.5 mph81%30.03 "Hg31 mi
8:00 pm41 °FQuite cool.5 mph76%30.02 "Hg31 mi
7:00 pm42 °FQuite cool.6 mph75%30.00 "Hg31 mi
6:00 pm43 °FQuite cool.6 mph75%29.98 "Hg31 mi
5:00 pm43 °FQuite cool.7 mph78%29.96 "Hg31 mi
4:00 pm44 °FQuite cool.8 mph75%29.94 "Hg31 mi
3:00 pm43 °FQuite cool.7 mph80%29.92 "Hg31 mi
2:00 pm43 °FQuite cool.8 mph83%29.90 "Hg31 mi
1:00 pm42 °FQuite cool.9 mph85%29.87 "Hg28 mi
Weather by CustomWeather, © 2017

See weather overviewHow to use our weather pages